GFSSGP_sfc_rhum_057.txt.gz
RH
75 69 70 88 99 96 92 73 65 77 70 44 39 49 68 56 70 88 83 74 71 74 81 78 84 80 78 81 82 79 77 78 79 77 78 76 76 76 75 74 74 74 73 73 70 71 71 71 71
67 63 84 96 99 95 87 64 64 72 46 43 43 47 56 80 74 86 84 66 64 70 80 84 85 82 79 81 81 80 76 76 79 79 78 74 72 72 73 74 74 73 72 71 70 70 71 70 69
57 55 93 96 94 94 94 63 59 52 40 46 52 48 55 88 75 72 64 58 57 65 81 84 85 84 80 80 80 80 78 76 76 75 74 74 74 73 71 70 71 73 72 71 70 70 70 69 70
59 88 90 96 90 81 79 63 43 42 43 44 49 64 60 62 68 68 58 58 60 78 79 82 81 81 80 80 80 78 76 76 76 76 74 74 73 72 73 73 71 71 71 70 70 69 68 69 68
69 88 91 88 77 83 60 44 42 47 48 55 56 74 78 65 60 60 58 54 66 76 82 81 83 83 80 80 77 77 76 75 76 76 74 74 72 73 72 71 71 71 70 69 68 68 68 68 70
91 92 93 93 84 68 52 44 35 41 50 58 69 72 80 61 59 60 55 56 63 75 80 77 80 82 81 77 76 78 76 74 76 76 73 74 74 74 76 70 69 68 68 68 69 69 71 72 71
78 84 85 86 82 67 48 52 39 46 53 58 56 80 76 64 56 55 51 54 62 68 76 80 78 73 77 79 77 76 75 74 74 74 74 73 72 71 72 71 70 67 66 66 66 69 74 74 72
59 65 65 91 79 70 35 28 35 46 52 45 52 84 86 65 56 52 51 55 57 69 74 78 85 87 89 84 76 75 75 74 74 73 72 71 70 69 69 77 75 65 64 64 65 68 73 74 73
43 67 60 67 67 46 39 42 36 35 48 48 45 62 60 55 53 56 61 68 64 64 69 74 82 84 84 84 75 77 74 75 74 74 72 78 84 83 71 75 74 67 66 65 66 71 72 72 70
54 59 66 48 47 48 36 39 36 41 53 62 63 56 51 53 58 63 66 63 62 65 67 66 74 77 76 64 85 88 80 85 84 84 88 92 89 90 74 75 75 71 71 68 71 72 70 68 83
40 53 56 43 39 36 30 31 23 40 63 63 68 60 53 54 56 57 58 56 56 58 58 59 63 67 68 71 85 88 85 84 88 77 91 94 90 91 80 81 86 88 83 86 88 88 90 79 80
38 45 40 35 34 32 35 34 24 35 54 53 54 52 54 57 58 56 51 50 50 53 51 54 56 62 65 70 76 74 73 77 84 91 85 95 94 90 89 94 91 97 98 95 95 97 94 90 81
29 45 33 31 32 36 35 31 28 49 51 52 52 52 56 58 55 51 48 44 44 48 46 50 55 69 65 61 67 68 63 64 69 74 80 96 96 88 89 90 94 96 97 96 97 94 92 87 75
23 36 32 30 36 36 36 34 33 46 47 52 53 57 55 54 51 52 51 50 47 45 44 54 53 70 62 67 76 70 64 62 61 73 76 84 96 91 89 94 82 95 91 92 96 87 87 82 74
18 23 35 33 37 45 34 48 51 52 43 51 54 56 56 54 51 52 50 51 53 51 48 53 58 71 67 70 72 68 70 56 60 74 71 71 78 87 86 84 85 88 92 86 84 79 76 69 65
22 24 34 25 32 32 40 88 61 43 58 50 50 52 53 54 52 49 48 48 48 50 54 56 46 65 75 74 74 77 71 62 58 71 74 67 69 78 90 95 95 91 90 91 77 86 82 77 73
28 34 31 28 23 23 33 91 61 48 60 50 47 49 50 52 51 48 46 46 44 47 52 55 57 62 76 78 81 75 75 77 69 69 74 70 70 76 93 95 92 88 93 82 82 74 78 84 72
37 34 30 31 24 23 48 55 63 56 58 57 55 60 47 50 47 46 45 42 42 48 51 49 61 65 69 78 85 79 81 80 67 70 75 77 79 78 93 94 87 89 90 83 86 72 79 79 66
26 26 26 20 20 24 32 52 54 55 47 49 50 60 53 43 41 39 41 41 42 50 54 53 68 71 69 76 74 90 82 81 69 68 78 79 80 77 89 95 91 88 90 83 79 79 79 68 67
22 25 26 19 16 22 42 55 52 52 62 54 51 64 60 38 37 38 37 38 42 54 50 67 62 73 68 71 68 83 82 79 72 70 70 79 78 82 84 90 91 86 84 86 80 81 83 85 73
23 25 24 24 16 23 38 53 52 48 59 55 55 57 46 36 36 39 37 40 42 54 57 56 70 78 70 75 74 82 84 80 78 75 69 80 74 78 81 86 90 88 88 87 83 83 81 85 74
26 18 20 21 22 42 24 51 63 55 54 51 51 50 42 33 33 36 37 39 43 51 57 56 72 76 72 76 73 68 63 71 82 70 74 78 76 79 81 83 83 84 94 87 84 81 87 83 83
18 16 16 19 24 25 31 34 60 47 46 48 46 47 43 36 31 35 36 37 38 45 55 60 62 76 69 72 66 74 82 81 73 77 71 80 82 77 82 84 82 86 88 89 89 87 88 89 81
14 16 17 17 22 31 24 32 37 39 44 41 44 45 44 34 30 31 34 34 37 44 53 62 65 68 69 74 85 72 77 75 79 75 79 84 83 77 81 81 81 86 89 89 90 90 84 87 91
16 21 28 29 31 34 23 26 34 22 23 31 34 41 40 29 30 31 35 36 38 44 51 62 68 71 75 72 67 84 79 79 74 71 74 85 87 74 83 85 84 84 85 89 87 88 88 90 88
18 18 26 35 30 26 19 24 22 16 16 14 22 30 28 29 29 30 32 35 35 39 49 58 70 70 71 78 74 65 78 78 65 84 75 68 78 71 68 75 84 80 81 86 92 90 93 92 92
16 18 14 20 26 28 24 19 16 13 14 13 15 23 26 27 29 30 30 32 34 38 47 54 68 70 71 70 76 75 68 82 73 63 85 85 72 70 72 71 76 87 83 83 88 96 92 94 94
12 12 17 14 27 26 20 23 20 16 13 15 12 17 19 23 28 29 30 31 34 34 41 47 63 69 72 71 72 74 77 70 80 78 81 68 75 77 74 75 76 81 86 83 88 92 94 93 97
16 16 13 16 21 28 31 19 14 16 13 13 13 16 18 20 26 28 30 30 33 33 38 45 54 68 73 74 72 74 79 78 72 82 77 74 80 74 92 89 83 78 80 88 88 91 92 94 95
14 13 16 16 22 22 23 17 17 13 12 11 14 12 18 17 26 27 29 29 32 34 35 42 51 61 68 70 74 74 74 80 82 73 75 76 73 86 76 87 83 82 79 81 91 93 81 87 94

GFSSGP_sfc_rhum_060.txt.gz
RH
77 72 79 92 97 99 92 77 87 72 55 44 42 50 68 78 75 86 88 83 81 83 87 81 84 79 77 79 79 78 78 78 77 77 76 76 76 76 76 75 74 74 71 69 71 72 72 72 65
77 73 88 96 97 93 89 85 83 72 60 50 50 53 65 91 78 91 91 77 78 85 89 85 84 81 77 78 78 78 76 77 78 77 76 75 75 75 74 75 74 73 73 71 71 71 71 71 68
70 62 95 98 93 94 89 71 63 54 44 48 56 59 70 86 80 80 71 73 75 90 91 85 84 82 75 76 78 77 76 76 75 74 73 72 72 71 72 74 74 73 72 71 70 70 70 71 71
68 89 91 98 88 79 77 69 61 52 47 48 59 78 69 64 70 68 64 67 81 87 85 83 81 75 76 76 78 77 76 75 74 76 76 75 74 73 73 71 72 71 71 70 69 68 68 69 70
74 91 91 90 81 85 72 68 70 62 56 59 60 88 88 70 67 60 62 71 89 89 86 82 82 80 79 76 78 75 76 75 75 76 75 74 75 72 72 72 71 71 70 68 67 66 66 66 68
92 94 93 92 80 62 55 56 64 60 60 65 73 76 86 71 65 62 63 79 84 88 86 80 82 82 80 76 77 76 75 75 76 75 76 75 76 74 72 71 71 70 69 69 69 68 68 67 67
94 90 85 82 78 78 52 57 60 60 62 66 59 89 85 68 59 60 67 79 82 84 85 86 81 74 76 76 76 75 74 75 75 74 74 74 74 73 72 70 69 68 67 66 68 69 69 72 72
80 86 76 82 73 73 45 52 49 53 59 53 60 85 86 62 60 60 74 78 83 84 86 93 90 90 93 85 75 74 75 74 74 74 73 73 71 71 70 76 75 68 67 67 66 68 70 71 73
55 85 86 71 65 60 50 47 51 48 59 53 54 62 55 60 60 64 77 85 86 83 89 92 95 96 95 89 78 78 75 75 74 74 73 79 87 84 75 75 71 67 66 66 66 66 70 69 69
71 93 80 49 54 52 44 50 54 58 64 67 68 55 54 59 64 69 77 88 87 88 87 92 94 94 92 73 88 91 84 88 89 89 90 93 90 91 76 77 70 68 67 68 73 73 72 70 89
57 81 56 45 38 46 43 41 46 64 79 72 76 69 62 60 65 67 69 80 80 79 78 87 87 90 89 81 95 96 95 94 93 90 91 93 92 94 89 86 91 90 74 77 82 85 88 81 90
55 46 44 40 34 38 37 35 53 52 63 60 61 61 61 65 65 66 68 70 74 76 73 78 81 81 85 91 92 91 88 89 92 94 86 96 96 97 94 95 93 94 96 88 95 95 88 88 85
42 41 37 35 34 34 34 37 51 57 56 56 57 60 63 62 62 60 59 59 66 72 68 70 74 76 76 82 86 89 86 83 81 88 90 96 96 92 94 95 96 96 97 96 96 95 91 90 79
28 30 36 32 29 39 39 46 58 59 55 59 60 62 60 60 60 58 55 57 61 62 63 62 67 71 70 73 83 83 79 77 79 81 86 93 91 95 96 96 94 97 95 95 96 94 90 88 83
19 23 27 34 29 42 38 51 71 63 55 61 60 59 59 59 57 58 51 52 54 55 54 58 63 69 69 70 75 75 73 65 65 78 83 83 90 92 94 96 95 95 96 92 89 93 90 86 71
26 25 29 32 37 40 50 72 65 62 62 63 60 60 60 60 56 55 52 52 47 50 53 55 52 66 67 74 76 79 75 73 72 79 79 80 83 92 94 96 96 94 96 96 96 95 88 77 76
33 38 36 28 32 42 52 70 57 61 64 66 63 61 60 60 56 53 50 53 53 56 53 56 54 67 69 78 76 78 77 80 74 80 77 78 82 89 94 95 93 92 93 89 87 89 80 83 80
38 46 39 33 32 42 54 58 54 54 62 66 65 64 61 60 59 53 49 48 47 59 56 54 54 67 76 83 83 81 82 82 79 75 81 77 83 89 94 94 88 91 94 88 92 79 81 84 71
30 34 36 29 33 48 60 56 55 51 64 62 64 64 63 59 53 50 49 47 46 60 60 58 60 68 73 87 94 90 84 84 82 77 74 81 83 85 92 95 91 85 94 85 86 82 81 75 73
26 30 30 27 22 27 48 54 54 54 56 58 56 63 59 58 55 52 50 48 45 57 58 62 63 67 68 66 70 88 88 85 79 73 81 82 81 86 90 92 92 90 92 91 88 87 87 89 76
26 29 28 29 24 34 47 68 63 55 55 54 45 51 51 53 54 53 52 51 46 52 58 59 67 71 69 72 80 93 91 85 84 80 78 86 82 85 87 90 92 91 93 90 92 86 82 85 79
31 22 22 23 28 42 40 91 69 62 59 56 56 46 47 47 46 47 49 50 48 49 55 55 70 71 69 78 74 72 72 78 85 75 77 81 83 85 85 86 87 89 96 90 88 85 87 80 77
26 22 24 23 31 38 32 61 68 55 62 52 46 49 49 49 40 42 42 46 46 45 50 58 71 71 70 80 71 71 71 78 85 81 74 80 89 84 82 86 87 88 92 91 90 89 92 91 85
19 21 22 28 30 37 30 32 50 64 53 42 38 43 46 48 38 36 38 42 44 46 48 52 70 77 73 75 74 73 72 87 82 82 80 82 89 84 89 84 85 88 91 91 91 91 90 94 91
22 30 36 44 38 37 27 36 29 46 41 37 39 37 40 43 42 36 39 40 44 52 54 54 65 74 76 74 76 76 75 79 78 82 72 88 94 93 88 91 89 88 92 90 92 91 91 89 93
27 23 37 45 44 31 32 34 25 30 33 33 35 34 36 38 38 36 37 37 42 48 56 58 62 65 72 75 74 73 74 74 71 72 81 72 84 80 78 83 84 86 87 90 94 93 91 92 93
30 28 21 32 43 33 30 23 18 17 23 22 32 33 35 38 38 36 33 37 39 48 55 60 62 60 68 69 72 76 83 71 70 81 76 72 84 81 82 78 84 85 86 86 95 95 94 95 95
22 21 28 31 35 36 28 26 20 19 17 17 30 32 35 38 38 35 32 36 37 43 49 57 61 60 62 68 66 64 67 82 87 72 83 89 85 79 79 83 80 83 86 85 92 95 95 95 97
26 25 24 23 27 26 33 20 18 19 19 17 24 31 34 37 38 33 31 34 36 38 46 55 60 61 63 65 69 71 71 68 74 87 73 70 78 86 83 84 81 81 85 89 88 93 94 94 95
22 26 20 23 27 29 28 18 14 15 16 16 15 25 31 34 33 31 30 32 36 37 42 51 57 62 63 66 67 73 74 76 73 72 88 76 78 76 73 95 90 83 81 93 87 88 83 95 95

GFSSGP_sfc_rhum_063.txt.gz
RH
76 75 83 94 98 96 94 87 83 69 63 48 48 52 64 79 73 87 89 88 87 90 90 84 80 77 77 77 78 77 77 77 77 77 77 76 76 76 76 75 74 70 70 72 72 72 67 66 69
81 78 91 98 98 94 88 83 82 73 68 48 55 62 75 92 82 94 94 84 84 90 92 89 82 80 77 78 78 77 77 78 79 77 78 77 76 76 76 74 75 73 72 72 72 72 70 66 68
76 68 96 98 92 93 88 77 72 57 57 52 71 73 75 85 83 83 78 82 87 92 94 90 82 80 76 77 77 76 77 76 75 73 72 72 73 76 75 74 73 73 73 72 72 72 71 72 68
76 91 93 98 90 85 78 72 66 55 59 65 72 87 75 68 71 73 79 82 93 94 88 83 79 75 74 76 77 76 75 74 77 76 75 74 72 71 72 73 73 72 72 71 71 71 70 73 69
79 93 93 93 83 79 70 73 63 63 70 71 66 87 91 75 69 74 79 86 95 95 88 80 80 76 75 77 76 75 74 74 77 75 75 74 75 74 72 72 71 71 70 70 69 69 69 69 70
96 92 93 92 80 66 60 64 67 64 72 70 77 79 86 74 74 72 79 89 89 95 88 81 78 78 76 77 76 77 74 76 76 76 74 78 74 74 73 72 72 71 70 70 70 72 72 70 70
94 94 84 80 74 72 60 55 71 69 67 68 63 90 90 77 70 76 86 88 90 89 92 88 85 78 76 77 76 76 75 76 76 76 76 76 74 73 72 71 70 69 68 69 70 71 74 70 70
87 87 86 81 69 70 53 59 54 62 63 57 60 93 98 75 66 77 89 92 95 93 95 96 93 91 92 86 75 75 75 76 75 74 74 74 73 72 71 76 74 68 67 67 69 70 73 72 69
62 96 93 74 77 58 52 64 54 53 63 55 58 66 62 65 65 89 95 95 92 92 97 96 96 97 96 92 79 77 75 75 75 74 73 78 89 87 78 74 70 66 65 66 68 69 69 71 68
84 99 83 56 51 59 49 53 62 63 64 71 64 60 60 64 78 92 93 87 92 95 98 97 98 98 96 79 91 93 87 91 92 91 91 94 92 92 79 76 71 66 66 71 74 73 70 77 90
74 94 70 54 46 46 51 52 51 65 81 72 72 68 69 72 82 87 89 86 90 93 92 98 98 97 96 90 98 99 98 96 96 93 93 93 92 96 93 94 95 90 79 80 80 85 88 84 94
69 60 63 51 42 43 45 47 58 59 64 60 58 65 70 73 77 82 88 88 91 90 88 97 96 97 96 96 98 98 98 97 97 96 88 95 97 97 96 97 93 94 96 90 93 96 90 86 87
45 44 42 43 40 40 37 42 54 60 61 55 54 65 69 71 71 72 78 79 84 87 84 94 92 96 95 96 98 98 97 95 94 95 85 96 96 95 95 94 96 95 96 96 95 95 89 91 86
30 30 34 35 34 36 41 56 62 65 61 59 58 66 66 68 69 70 75 77 80 79 80 85 89 89 92 94 95 96 94 89 89 91 89 92 95 95 96 96 96 95 95 96 96 97 95 90 88
21 25 23 24 34 47 43 59 72 67 63 67 66 62 65 66 66 69 68 70 73 73 73 79 83 83 87 88 86 88 86 79 77 81 89 88 86 92 94 96 95 95 95 94 91 95 96 94 74
30 29 36 24 36 39 45 73 75 66 69 73 69 67 65 65 64 62 60 63 65 67 70 70 64 75 82 81 83 80 82 80 76 83 89 86 86 91 94 96 97 96 97 96 94 97 94 82 80
31 41 37 31 39 46 46 70 79 68 70 73 70 67 64 64 63 59 55 57 59 61 64 66 66 73 78 78 82 83 82 82 82 88 86 86 88 89 92 95 96 93 97 95 96 92 86 85 88
31 45 42 34 35 48 50 68 79 73 71 72 69 66 66 66 64 58 55 52 54 56 57 61 63 70 77 79 84 88 87 89 83 87 86 85 92 90 92 94 92 92 95 92 94 80 85 86 70
32 37 36 32 29 47 50 58 70 78 73 74 70 68 67 64 57 55 54 54 53 55 56 61 63 70 76 88 88 91 86 90 87 82 81 82 90 89 91 94 92 87 94 89 92 87 84 80 76
22 26 31 31 39 50 51 51 58 72 76 71 69 70 67 64 60 57 56 53 54 61 57 61 60 69 72 67 72 86 86 86 82 79 80 83 84 91 91 93 94 92 93 92 93 88 92 91 77
26 27 28 36 42 45 54 68 56 60 62 66 64 64 62 63 62 61 58 54 51 63 66 63 60 64 67 65 86 97 92 88 86 86 81 90 84 88 90 92 93 94 94 93 94 90 86 86 84
38 26 25 28 32 42 53 79 74 55 62 58 60 64 65 62 57 56 57 56 52 54 63 64 62 63 65 76 72 79 64 70 77 84 81 84 87 86 88 90 92 92 97 94 96 87 89 82 74
31 25 28 30 33 38 46 74 70 60 64 61 55 56 58 58 56 56 55 52 50 48 60 63 66 66 64 77 68 72 76 76 95 86 81 82 94 88 86 90 90 92 96 94 93 92 93 89 83
28 29 33 35 30 39 34 51 46 72 62 53 50 52 50 53 53 52 50 50 50 48 51 60 67 69 69 76 74 73 74 93 92 92 86 87 87 92 92 88 90 91 93 94 94 92 93 95 90
30 38 51 52 43 42 33 38 27 47 42 43 45 47 46 45 47 48 51 51 52 52 52 58 68 72 72 78 75 76 74 84 83 86 88 86 91 97 92 95 94 93 92 92 93 95 93 95 96
32 34 49 57 53 37 32 40 29 29 38 36 38 39 39 42 44 46 43 47 48 51 51 58 67 69 72 77 75 76 75 76 73 80 80 81 83 79 86 84 92 90 91 92 93 96 94 94 93
32 37 30 41 58 38 35 33 24 22 30 39 40 36 35 40 40 43 39 41 44 49 52 57 64 66 72 73 74 76 76 76 75 83 79 77 83 81 86 86 88 91 92 92 94 94 95 95 95
25 28 39 43 45 49 39 32 28 26 23 44 42 37 36 34 38 42 38 40 43 46 50 54 56 63 67 70 71 73 74 76 73 82 80 81 81 85 84 92 90 94 92 90 93 94 94 96 97
34 31 36 34 38 37 48 34 24 22 22 23 32 36 36 35 35 39 38 36 39 43 50 55 56 58 61 68 69 70 74 77 74 76 78 78 82 79 80 93 92 91 93 93 92 92 94 95 94
46 39 33 37 41 35 37 28 16 16 18 19 19 20 26 32 33 35 37 34 38 41 48 54 56 58 56 63 67 69 72 76 83 86 77 75 80 86 89 90 94 90 87 91 89 88 83 92 95

GFSSGP_sfc_rhum_069.txt.gz
RH
66 65 66 92 95 86 80 88 76 70 58 44 44 48 56 65 61 71 63 63 60 58 60 62 80 77 78 77 78 79 78 77 77 78 76 74 76 75 76 73 70 73 72 69 66 67 68 69 66
61 73 88 97 87 77 71 75 82 70 49 45 54 53 58 74 69 79 76 62 58 55 56 60 81 80 76 77 77 76 76 76 77 76 77 75 75 75 72 70 72 72 72 68 66 66 66 68 71
63 69 98 98 86 72 70 66 69 68 46 49 72 62 65 80 72 66 58 60 56 60 60 66 81 81 77 76 76 77 76 78 77 74 76 76 74 74 73 71 72 73 72 70 70 69 67 69 70
69 91 97 95 74 69 68 61 60 61 51 54 58 74 67 63 64 58 60 58 56 57 57 73 77 77 77 76 77 76 74 73 72 73 76 75 74 72 72 72 72 71 70 69 69 68 68 67 67
66 88 80 71 76 66 59 61 57 57 62 60 57 78 82 74 59 61 60 56 56 52 55 60 79 77 75 76 74 74 76 74 74 74 71 72 73 73 72 72 71 70 72 70 69 67 66 66 68
87 76 76 71 74 61 60 67 56 57 64 63 63 69 81 69 67 65 56 54 53 53 52 56 74 78 77 72 73 75 77 75 74 75 77 75 73 73 73 71 70 70 70 70 69 68 68 66 67
95 80 70 66 64 60 57 58 59 58 62 60 54 70 83 77 64 63 57 55 54 53 56 59 57 68 76 74 73 74 75 76 77 77 75 77 73 73 74 72 71 70 68 69 68 68 68 69 68
74 72 66 64 66 55 57 53 53 53 61 49 49 72 83 75 66 60 59 58 56 58 61 65 65 60 67 65 73 74 78 76 77 77 74 74 74 73 73 75 72 70 70 69 68 68 70 69 70
62 85 63 54 56 52 52 56 51 50 56 54 51 56 51 64 66 65 71 72 71 68 59 54 58 62 67 65 63 73 74 74 74 72 78 71 61 62 59 71 71 71 68 68 69 68 66 68 68
67 80 63 46 44 48 47 51 54 56 57 62 59 53 60 63 68 72 71 74 66 66 60 54 57 60 64 57 66 67 62 58 64 67 71 61 66 66 57 65 67 70 68 68 70 68 69 63 46
59 74 59 48 44 40 45 51 47 54 62 58 65 66 64 63 67 72 66 64 61 60 55 56 68 67 64 64 65 62 61 61 64 74 74 70 66 65 55 59 65 70 63 49 52 55 49 54 52
65 61 57 50 43 43 47 45 50 50 46 46 53 58 61 62 62 68 63 65 67 71 60 65 70 75 72 65 63 61 60 61 59 64 73 72 62 70 70 79 61 76 63 64 60 55 62 60 61
52 49 42 44 40 37 37 45 44 51 50 48 54 58 60 58 59 64 55 57 65 74 63 67 71 75 76 78 67 62 62 58 57 61 67 65 65 67 64 82 60 66 65 62 66 63 56 58 56
29 35 36 33 26 32 34 38 46 58 51 57 60 59 57 56 56 64 58 59 63 70 66 64 70 72 75 74 79 69 64 61 61 60 61 68 66 68 64 77 61 62 60 63 65 67 65 59 56
27 30 26 22 22 26 35 49 49 57 53 60 60 60 57 57 57 64 57 60 64 64 63 66 67 67 77 76 71 66 61 54 57 58 68 68 68 69 74 78 85 62 66 71 68 70 68 52 48
17 21 31 25 24 23 38 45 68 55 56 61 62 61 60 59 58 61 58 58 62 59 67 66 54 61 72 72 69 61 58 56 58 58 59 68 71 74 71 64 76 68 68 61 65 73 55 49 49
22 13 25 29 20 28 42 47 65 56 57 62 63 61 59 60 59 58 57 58 58 61 66 66 62 58 67 72 66 64 65 61 57 57 56 63 69 70 67 64 69 84 70 64 60 58 57 55 52
17 17 24 30 26 29 41 44 64 60 59 62 61 62 60 58 57 56 56 55 56 58 64 67 62 66 73 66 72 62 60 58 58 60 59 66 65 70 70 64 76 80 83 64 60 67 60 54 49
20 22 18 26 25 27 33 40 57 66 59 61 60 61 58 56 52 52 54 54 56 59 64 68 71 73 72 66 63 62 60 62 63 61 68 68 68 70 76 64 70 66 66 64 70 67 67 51 54
18 23 24 22 22 28 28 32 44 63 64 58 59 64 58 55 54 57 56 55 56 62 65 68 71 73 74 63 65 61 62 58 59 60 67 67 67 70 72 74 68 73 71 81 74 68 56 54 52
18 18 23 22 22 23 36 38 50 58 59 59 54 52 56 55 54 56 57 56 54 60 65 68 72 73 73 70 66 70 68 66 62 62 60 63 66 66 73 75 79 74 68 83 77 71 68 52 53
19 16 18 21 22 32 33 40 51 52 64 62 57 54 52 53 51 50 52 54 54 56 58 66 71 74 70 75 70 76 62 59 55 59 58 60 66 65 66 72 72 75 62 84 79 70 64 67 55
15 13 14 16 22 24 25 45 31 47 57 58 53 52 50 48 48 49 50 51 50 51 54 59 69 75 73 76 75 68 70 58 57 57 69 71 71 69 63 69 72 81 73 77 76 80 82 62 56
13 20 16 14 15 27 26 29 33 37 44 44 46 49 49 46 46 48 47 48 49 48 51 54 69 77 76 76 75 79 76 70 63 64 58 56 56 59 70 66 72 73 80 76 74 79 81 75 66
19 19 31 31 26 27 22 29 30 25 31 26 38 47 48 46 46 48 50 49 52 52 54 54 70 78 76 74 74 75 76 77 76 71 57 60 52 55 65 73 74 67 75 76 74 78 75 75 69
25 24 22 36 25 19 24 34 28 21 20 28 29 33 39 46 46 48 51 51 52 54 58 61 70 75 73 73 76 78 78 60 60 65 54 52 50 50 62 67 67 70 71 71 75 68 65 71 69
26 30 19 25 28 24 19 25 21 20 19 18 20 29 34 39 45 47 47 48 50 54 58 62 68 75 74 70 75 77 76 75 65 72 70 55 64 51 61 63 66 67 69 72 75 66 73 72 73
25 20 33 30 35 39 25 26 24 26 22 19 22 25 27 32 37 42 44 46 48 50 53 57 63 72 71 68 68 68 72 74 72 70 74 70 65 67 59 65 64 65 68 70 76 68 71 76 67
31 26 26 25 27 30 32 25 18 21 22 20 17 22 26 30 34 37 44 46 48 47 49 52 59 65 67 67 69 71 69 68 70 67 69 70 70 71 70 68 67 67 68 70 76 75 70 75 76
36 33 28 31 40 32 27 24 17 18 16 17 18 18 22 28 30 35 38 44 46 48 47 49 51 54 59 63 69 70 70 71 67 70 66 67 71 71 70 70 69 66 66 69 73 70 64 72 74

GFSSGP_sfc_rhum_072.txt.gz
RH
60 49 51 75 94 66 74 73 67 52 45 34 36 40 42 45 52 74 47 43 43 45 50 58 80 77 76 77 78 77 77 77 75 74 74 74 75 74 74 71 71 72 69 66 67 68 68 66 68
45 53 62 93 80 76 53 74 69 56 40 35 36 38 42 51 46 55 51 43 42 41 42 48 83 80 77 78 77 76 76 77 77 76 73 75 75 74 70 69 73 73 68 66 66 66 68 70 68
47 53 90 82 71 62 52 55 52 46 36 52 48 44 44 56 48 49 41 41 40 44 41 58 81 79 76 76 75 76 78 76 75 75 74 74 72 71 69 71 69 71 69 69 68 66 68 70 71
50 71 67 88 64 50 52 53 52 43 40 37 40 52 50 50 44 41 40 38 40 38 39 69 78 76 75 77 78 76 76 75 75 74 75 73 71 72 71 72 70 70 68 68 68 68 68 67 66
48 75 77 60 57 53 42 42 43 47 43 42 39 57 67 51 43 40 40 37 36 33 41 51 81 78 76 77 74 72 72 72 72 73 76 74 73 72 72 72 71 69 68 68 66 66 67 66 67
72 59 64 65 68 45 43 48 40 40 44 42 45 52 66 49 46 41 37 35 30 33 35 47 73 77 77 72 75 77 76 75 74 75 73 73 72 73 73 70 70 67 68 67 66 66 66 66 67
82 64 56 59 62 47 44 43 39 44 44 42 38 52 65 55 44 38 35 32 28 30 37 46 49 63 72 73 75 76 76 76 75 75 75 75 74 74 73 71 69 67 68 67 67 66 64 66 65
55 58 46 49 50 48 41 40 38 38 43 36 37 54 70 55 48 35 33 32 30 32 39 46 50 51 52 54 74 74 76 75 75 74 72 74 72 72 71 75 71 68 67 66 67 67 67 68 69
42 59 47 39 48 40 43 50 45 36 42 41 38 40 41 58 50 37 36 35 36 36 37 37 40 49 48 49 60 74 75 75 75 72 77 73 43 47 51 68 68 67 66 67 66 65 65 68 69
40 51 45 32 32 34 37 37 40 41 42 45 43 38 47 56 55 43 39 38 38 40 37 34 36 42 45 41 54 51 51 44 47 51 56 43 49 49 45 58 66 66 67 67 67 66 64 69 39
35 52 38 34 32 36 32 37 35 38 43 41 46 47 50 53 55 42 41 39 41 40 35 33 42 46 42 47 44 43 42 46 51 60 56 51 47 46 41 45 44 46 58 40 50 50 38 43 44
33 33 40 33 32 34 38 31 35 36 36 33 38 42 45 48 44 39 40 39 40 42 38 38 46 53 49 45 42 41 40 42 41 47 59 56 45 51 48 40 46 53 44 50 44 42 50 46 45
28 28 30 32 33 31 31 34 34 36 36 33 38 42 43 42 41 37 36 36 39 41 39 43 50 58 56 58 44 41 42 40 39 47 52 46 47 57 49 53 45 46 45 45 47 46 44 45 43
14 19 23 26 27 28 33 30 33 36 37 38 41 42 40 39 41 41 38 40 41 42 40 43 49 56 56 56 61 52 46 46 43 43 48 58 49 70 50 51 46 46 42 42 46 50 46 43 40
12 17 16 18 24 25 25 30 36 40 39 43 42 41 39 39 40 42 39 42 42 42 40 44 48 49 59 58 58 50 46 42 43 43 57 54 56 67 60 48 47 45 49 57 52 53 47 36 36
10 12 15 14 22 23 28 34 37 38 40 45 44 42 42 40 39 41 38 39 39 40 46 45 38 42 55 57 54 46 43 41 42 42 44 56 58 62 64 49 50 64 53 43 43 43 41 36 44
9 9 12 21 21 24 28 33 43 38 38 44 44 43 42 42 40 41 38 38 38 42 47 47 45 41 51 58 51 50 53 46 42 42 42 55 56 56 56 56 50 57 49 40 40 40 44 42 34
9 8 7 20 23 25 30 34 41 40 39 42 43 44 44 42 41 42 40 38 36 41 46 49 45 48 56 50 55 45 44 44 42 42 41 54 53 57 57 61 54 51 43 42 40 47 42 38 34
10 8 8 13 20 26 27 30 39 43 39 41 41 44 41 41 39 40 40 39 36 41 48 52 53 57 53 48 46 46 46 46 45 45 52 57 56 59 61 50 54 53 55 49 56 51 53 38 42
11 13 11 12 17 24 25 27 27 39 40 38 40 44 40 40 40 42 43 41 38 43 48 54 56 60 60 45 47 43 45 42 42 43 52 53 55 59 56 60 58 66 54 58 56 60 41 38 39
13 12 11 12 16 21 25 29 26 28 37 35 36 38 37 38 39 41 44 43 41 43 49 54 60 62 61 54 48 54 51 50 50 48 46 49 53 54 59 59 55 62 76 49 56 54 56 38 41
13 9 10 13 18 24 22 30 29 25 37 38 36 37 37 36 36 37 39 42 41 42 44 51 58 62 59 62 57 68 51 47 40 42 40 42 52 52 53 57 56 62 56 60 53 48 50 55 40
13 9 10 10 15 18 24 29 22 24 34 36 35 34 33 34 33 34 37 40 39 40 40 46 57 64 61 66 64 56 60 39 38 39 53 61 58 56 50 56 62 66 50 58 61 60 63 48 42
11 11 12 11 10 18 20 22 23 30 31 32 31 32 33 31 33 33 33 36 39 37 39 42 57 68 65 64 64 67 65 57 44 50 44 43 42 45 56 53 59 61 54 60 56 67 63 62 53
14 12 18 16 12 11 11 18 21 17 22 23 26 31 31 31 32 34 36 36 40 41 42 42 59 72 67 63 62 64 66 66 63 59 48 48 38 38 48 61 61 54 65 59 59 65 64 60 56
17 15 14 26 13 9 8 16 16 15 17 18 18 20 25 29 31 33 37 37 39 42 44 47 59 71 65 64 68 70 70 50 51 56 43 40 37 36 46 53 55 57 55 58 62 61 52 60 57
18 20 12 12 13 15 8 10 12 13 15 18 17 19 21 25 28 30 32 35 37 41 46 50 58 70 67 59 69 70 69 66 52 62 56 45 50 39 47 50 55 54 55 58 62 52 60 60 66
20 15 20 18 28 28 15 14 12 17 20 17 16 15 17 18 23 26 29 34 36 37 41 45 53 66 62 57 59 58 61 63 62 57 62 58 52 53 49 52 51 53 56 58 65 54 57 64 54
20 22 20 16 19 23 21 14 10 14 15 16 14 14 13 14 16 22 27 31 35 35 38 42 48 55 57 56 59 62 58 56 59 54 57 60 61 59 61 56 55 52 54 58 64 63 55 59 65
22 22 18 24 31 22 20 14 11 12 11 14 14 13 12 14 16 20 24 30 33 37 36 39 42 46 50 52 61 61 60 60 54 58 55 57 63 63 63 60 59 56 53 57 62 60 50 59 63

GFSSGP_sfc_rhum_075.txt.gz
RH
61 44 49 79 90 79 67 62 57 40 38 27 27 32 42 39 52 75 41 42 42 44 47 55 80 75 76 76 77 76 73 74 74 73 73 73 73 75 72 70 74 70 66 66 68 68 67 68 69
38 42 59 76 82 79 67 62 56 43 32 29 30 30 38 46 40 47 48 42 42 42 42 48 83 79 76 78 76 76 76 76 74 74 74 74 74 72 68 72 72 68 67 65 66 69 68 68 72
50 42 72 80 62 72 54 42 43 34 28 33 38 30 44 48 43 42 40 41 39 46 42 60 80 79 77 75 77 77 76 75 75 73 72 72 72 68 70 69 71 70 70 66 66 68 70 70 71
47 60 57 72 53 45 51 47 34 32 39 36 34 44 41 36 38 39 34 40 40 37 38 72 78 76 75 76 77 76 76 75 74 72 71 71 70 69 72 70 70 68 69 69 68 68 70 65 66
43 70 74 62 56 41 40 42 33 38 37 34 38 51 52 41 35 34 38 38 33 29 41 52 79 77 77 77 75 74 73 74 74 73 72 72 72 71 70 69 68 68 68 67 66 69 69 68 68
79 62 71 79 52 44 40 34 30 35 40 34 43 48 52 41 38 36 34 39 24 29 34 50 73 77 75 72 71 71 72 71 73 74 74 73 72 70 70 68 66 66 66 66 65 66 67 66 68
65 71 63 46 49 49 36 38 35 39 34 33 34 51 47 40 39 35 30 25 24 25 35 46 50 68 72 76 75 75 75 76 75 73 73 72 72 71 71 69 68 67 66 66 65 64 64 65 69
43 56 70 49 44 60 30 33 33 32 44 29 32 51 56 39 37 35 27 23 23 27 35 44 49 47 52 61 74 75 75 74 74 73 73 73 71 70 69 74 69 65 65 64 64 64 65 67 70
28 46 52 45 33 53 32 43 40 63 33 32 31 34 38 33 32 35 27 26 27 29 32 32 37 42 50 50 63 73 75 74 74 70 72 71 44 51 58 69 68 66 65 64 64 65 67 69 70
31 31 54 50 49 81 31 34 44 30 32 36 34 32 36 33 34 33 29 28 28 32 31 29 32 36 57 37 61 54 54 49 51 50 62 73 62 61 44 59 66 65 66 65 64 64 66 76 47
26 33 78 55 27 32 34 41 30 30 34 32 38 42 42 36 34 30 28 28 30 32 28 27 34 37 40 44 42 38 49 44 46 52 57 44 43 48 55 48 47 50 64 46 50 50 69 73 64
25 25 24 48 26 34 43 37 27 39 83 28 33 40 41 38 33 28 28 28 30 33 30 30 37 44 45 36 34 33 34 39 39 43 56 49 71 64 68 65 43 51 66 46 58 58 44 48 64
18 19 19 28 28 28 31 35 43 31 26 27 33 40 40 36 33 28 27 27 31 34 32 34 41 48 48 48 39 33 35 32 36 43 46 42 67 49 63 57 69 69 60 44 61 50 58 48 38
13 16 18 21 23 24 32 30 25 29 27 31 35 38 36 35 32 31 30 31 33 33 33 35 41 48 49 50 51 42 36 50 33 37 46 54 79 50 60 51 68 56 76 66 67 48 82 56 51
10 14 13 16 19 22 24 33 29 30 28 34 35 36 35 34 32 32 31 32 32 30 33 38 41 44 53 52 50 44 55 32 45 71 53 54 72 57 54 60 68 66 52 52 53 50 48 48 62
10 10 14 11 13 17 22 32 26 29 30 34 35 34 36 35 31 31 30 32 31 30 36 39 33 40 50 53 51 41 36 50 64 65 50 53 57 57 57 50 50 47 63 76 66 44 88 47 64
7 9 11 12 10 16 21 32 68 27 29 34 35 33 34 35 37 33 30 32 31 33 38 40 38 38 48 55 50 45 49 51 62 58 67 51 62 56 54 45 50 58 52 54 41 67 75 45 58
7 7 7 12 12 17 21 34 76 43 28 33 34 34 34 34 35 34 31 31 30 32 38 42 39 48 57 51 53 44 44 40 47 48 57 51 51 55 56 48 54 51 62 66 66 55 59 72 51
6 6 6 7 12 18 22 26 66 32 28 32 32 35 32 33 32 33 32 31 30 32 40 45 50 59 52 47 47 45 41 42 38 36 46 51 49 52 58 53 55 48 45 78 50 49 49 32 34
7 8 7 6 7 16 21 24 29 29 30 29 31 36 33 32 34 35 35 33 32 36 42 50 55 62 57 46 49 43 44 37 36 37 48 49 49 54 50 66 59 54 50 57 54 74 77 42 45
9 9 9 8 8 11 18 23 32 61 39 28 27 31 30 31 33 34 37 36 34 37 43 51 59 63 62 55 48 48 46 44 39 45 44 46 48 49 51 56 88 60 57 53 59 56 60 76 34
11 8 8 8 8 17 16 24 22 48 79 29 27 28 28 28 30 31 34 35 34 35 38 50 57 64 61 62 53 65 47 43 38 40 37 44 47 47 52 54 55 62 48 56 55 50 58 57 42
12 8 8 8 9 11 14 19 16 20 33 28 26 26 27 26 27 29 32 35 34 33 35 41 58 65 63 65 60 52 58 40 36 34 59 59 60 49 43 52 56 59 52 58 56 59 64 44 46
10 10 9 8 8 11 13 15 17 20 23 28 25 24 26 25 25 27 29 32 33 33 33 37 57 69 67 66 66 67 65 56 38 43 43 42 42 46 52 48 56 61 55 58 57 61 62 68 56
13 12 16 15 13 11 7 12 18 13 20 21 22 24 24 24 25 27 30 31 36 36 37 38 58 72 70 65 64 64 66 67 62 58 41 47 34 34 59 60 61 55 63 58 63 69 64 61 55
15 12 15 24 13 8 7 11 13 12 16 24 20 21 22 24 25 27 29 31 34 37 41 43 56 70 67 64 67 69 68 46 44 53 39 35 32 33 58 57 53 55 57 56 62 56 52 62 57
14 16 10 11 9 9 6 7 6 8 11 21 32 21 23 23 24 25 26 28 31 36 43 47 54 67 68 61 68 69 68 64 49 60 62 42 49 32 40 45 56 55 55 57 68 53 61 65 62
13 11 15 14 24 20 11 10 8 10 11 12 15 17 18 20 21 22 24 28 29 30 35 42 50 63 65 58 62 61 64 65 61 60 63 58 54 52 45 50 49 54 56 58 68 57 61 65 57
17 18 18 13 14 18 16 13 9 9 11 12 12 15 15 15 18 19 21 24 28 29 32 36 44 53 60 58 60 62 60 59 62 56 58 60 60 60 60 55 55 54 55 59 68 67 57 65 67
11 15 15 22 26 16 14 12 8 7 7 10 13 12 12 13 15 16 18 22 26 30 31 34 37 41 50 54 59 60 61 60 58 59 56 59 64 65 64 64 61 58 54 61 64 61 52 57 58